Location: Alma
(38.7220°N, 88.9090°W)
Time: 13:26:28
(UTC-06:00)

Vanguard 2 Rocket - Pass Details

Date: 15 November 2019
Orbit: 554 x 3326 km, 32.9° (Epoch: 05 December)

Event Time Altitude Azimuth Distance (km) Brightness Sun altitude
Rises 06:51:31 0° 273° (W) 4,160 9.7 1.6°
Reaches altitude 10° 06:54:04 10° 265° (W) 3,487 9.4 2.1°
Maximum altitude 07:02:40 41° 199° (SSW) 2,681 9.4 3.6°
Drops below altitude 10° 07:16:44 10° 137° (SE) 5,631 12.7 6.0°
Sets 07:22:14 0° 132° (SE) 6,963 13.5 6.9°
